Regional Weather Roundup
Issued by NWS

Home | Current Version | Previous Version | Text Only | Print | Product List | Glossary Off
Versions: 1 2 3 4 5 6 7 8 9 10 11 12 13 14 15 16 17 18 19 20 21 22 23 24 25 26 27 28 29 30 31 32 33 34 35 36 37 38 39 40 41 42 43 44 45 46 47 48 49 50

000
ASUS43 KMPX 232110
RWRMN
WEATHER ROUNDUP FOR MINNESOTA
NATIONAL WEATHER SERVICE TWIN CITIES/CHANHASSEN MN
400 PM CDT MON APR 23 2018


NOTE: "FAIR" INDICATES FEW OR NO CLOUDS BELOW 12,000 FEET WITH NO
SIGNIFICANT WEATHER AND/OR OBSTRUCTIONS TO VISIBILITY. N/A MEANS
CURRENT SKY AND/OR WEATHER CONDITIONS ARE NOT AVAILABLE.

MNZ060>063-068>070-232200-
   Twin Cities Metro

CITY           SKY/WX    TMP DP  RH WIND       PRES   REMARKS
TWIN CITIES    FAIR      70  36  28 NW9       30.14F
ST PAUL        FAIR      69  35  28 MISG      30.14F
CRYSTAL        FAIR      68  35  29 CALM      30.14F
BLAINE         MOSUNNY   70  36  28 W7        30.15F
LAKEVILLE      FAIR      66  37  34 W5        30.15S
EDEN PRAIRIE   FAIR      67  38  34 VRB3      30.14F
SOUTH ST PAUL  FAIR      69  33  26 CALM      30.14F
LAKE ELMO      FAIR      68  37  32 N3        30.15F
$$
MNZ001>005-007-008-013>017-022>024-027-028-232200-
   Northwest Minnesota

CITY           SKY/WX    TMP DP  RH WIND       PRES   REMARKS
BEMIDJI        FAIR      65  35  33 NW12G17   30.14S
HALLOCK        FAIR      63  28  27 N15       30.17F
ROSEAU         FAIR      61  37  41 W9G18     30.16S
WARROAD        FAIR      61  34  36 W12G21    30.15S
THIEF RVR FALL FAIR      60  36  40 NW14      30.18F
CROOKSTON      FAIR      61  39  44 N10       30.19S
FOSSTON        FAIR      63  34  34 NW9       30.17S
DETROIT LAKES  FAIR      64  41  42 N6        30.16F
MOORHEAD       FAIR      66  39  37 N12       30.16F
PARK RAPIDS    FAIR      69  38  32 W14       30.12F
MAHNOMEN       FAIR      64  37  35 N10       30.15F
$$
MNZ006-009>011-018-025>026-232200-
   North Central Minnesota

CITY           SKY/WX    TMP DP  RH WIND       PRES   REMARKS
BAUDETTE       FAIR      60  33  36 N15       30.14S
FLAG ISLAND    FAIR      52  27  37 N8        30.13F
INTL FALLS     FAIR      64  32  30 NW14G23   30.12S
WASKISH        CLOUDY    63  34  34 W9        30.14F
BIG FORK       FAIR      68  34  28 W13       30.12S
LONGVILLE      PTSUNNY   66  36  32 SW3       30.13S
GRAND RAPIDS   FAIR      65  38  36 W7        30.14F
CRANE LAKE     FAIR      63  30  29 N6G17     30.12S
ORR            FAIR      68  27  21 W10       30.08F
COOK           FAIR      66  34  30 W13       30.11S
WALKER         FAIR      68  32  26 W13       30.12S
$$
MNZ012-019>021-037-232200-
   Northeast Minnesota

CITY           SKY/WX    TMP DP  RH WIND       PRES   REMARKS
DULUTH         FAIR      67  39  35 NW5       30.12F
ELY            FAIR      64  30  27 W10G21    30.10S
HIBBING        FAIR      67  36  31 W8        30.11F
EVELETH        FAIR      66  37  34 W9        30.12F
DULUTH HARBOR  FAIR      66  36  32 SW3       30.12F
TWO HARBORS    FAIR      70  45  40 S14       30.09F
SILVER BAY     FAIR      64  36  34 S13       30.09S
GRAND MARAIS     N/A     45  34  65 SW9       30.11F
G MARAIS ARPRT FAIR      59  27  29 S8        30.11F
$$
MNZ029>031-032-039>041-046>048-054>057-064-232200-
   West Central Minnesota

CITY           SKY/WX    TMP DP  RH WIND       PRES   REMARKS
FERGUS FALLS   FAIR      66  39  37 W7        30.11F
WHEATON        SUNNY     70  36  28 W3        30.15F
MORRIS         SUNNY     66  41  39 SW7       30.14S
ALEXANDRIA     FAIR      69  34  27 VRB6      30.15F
ELBOW LAKE     FAIR      66  40  38 NE6       30.15F
WADENA         FAIR      64  43  45 NW9       30.13F
GLENWOOD       FAIR      66  36  32 W5        30.15F
APPLETON       SUNNY     68  34  28 SW5       30.14F
BENSON         SUNNY     70  36  28 NW3       30.16F
ORTONVILLE     SUNNY     70  37  30 CALM      30.13F
MADISON        SUNNY     70  43  37 SW6       30.14F
WILLMAR        FAIR      66  39  37 W6        30.17F
$$
MNZ033>034-036-042>043-049>051-058-059-232200-
   Central Minnesota

CITY           SKY/WX    TMP DP  RH WIND       PRES   REMARKS
ST CLOUD       FAIR      68  38  33 N8        30.14F
SAUK CENTRE    FAIR      66  37  33 W7        30.14F
PAYNESVILLE    FAIR      67  37  33 SW7       30.14F
AITKIN         FAIR      66  37  34 S6        30.11F
PINE RIVER     PTSUNNY   64  39  39 NW5       30.15F
BRAINERD       FAIR      70  38  31 VRB5      30.13F
STAPLES        FAIR      70  36  28 W8        30.13F
LONG PRAIRIE   FAIR      64  32  29 SW5       30.15F
LITTLE FALLS   FAIR      64  25  22 W6        30.15F
LITCHFIELD     FAIR      66  39  37 W5        30.15F
BUFFALO        FAIR      66  38  36 CALM      30.16F
MAPLE LAKE     FAIR      68  42  38 CALM      30.16F
HUTCHINSON     FAIR      67  43  41 CALM      30.16F
$$
MNZ037-044-045-052-053-232200-
   East Central Minnesota

CITY           SKY/WX    TMP DP  RH WIND       PRES   REMARKS
PRINCETON      FAIR      70  37  30 W5        30.15F
MORA           FAIR      64  37  36 W8        30.16F
CAMBRIDGE      FAIR      70  46  43 CALM      30.15F
RUSH CITY      FAIR      66  37  33 W7        30.15F
MOOSE LAKE     FAIR      68  37  32 W12       30.12F
HINCKLEY       FAIR      66  37  34 W7        30.14F
CLOQUET        FAIR      66  30  26 W7        30.12F
MCGREGOR       FAIR      68  37  32 W6        30.13F
$$
MNZ071>073-080-081-089-090-097-098-232200-
   Southwest Minnesota

CITY           SKY/WX    TMP DP  RH WIND       PRES   REMARKS
MONTEVIDEO     SUNNY     72  37  28 NW6       30.15F
GRANITE FALLS  SUNNY     69  38  33 S6        30.16F
CANBY          SUNNY     69  34  27 SE3       30.15F
MARSHALL       SUNNY     66  34  30 VRB6      30.16F
REDWOOD FALLS  SUNNY     66  36  32 CALM      30.15F
OLIVIA         SUNNY     68  39  34 W6        30.15F
PIPESTONE      SUNNY    N/A N/A N/A CALM      30.15F
WINDOM         SUNNY     64  36  34 N3        30.17S
WORTHINGTON      N/A     64  42  44 E8        30.16F
JACKSON        SUNNY     61  36  39 E3        30.17F
TRACY          SUNNY     65  35  33 SW5       30.16F
SLAYTON        SUNNY     64  38  39 NE5       30.17F
$$
MNZ065>067-074>077-082>085-091>093-232200-
   South Central Minnesota

CITY           SKY/WX    TMP DP  RH WIND       PRES   REMARKS
MANKATO        FAIR      66  39  37 CALM      30.16F
NEW ULM        SUNNY     64  37  36 CALM      30.16S
ST JAMES       SUNNY     63  43  48 CALM      30.18S
FAIRMONT       SUNNY     61  38  42 NE5       30.17F
GLENCOE        FAIR      66  41  40 NW3       30.15F
OWATONNA       FAIR      66  37  34 NW5       30.16F
WASECA         FAIR      64  36  34 N5        30.17F
ALBERT LEA     FAIR      64  34  32 N3        30.15
$$
MNZ078>079-086>088-094>096-232200-
   Southeast Minnesota

CITY           SKY/WX    TMP DP  RH WIND       PRES   REMARKS
ROCHESTER      FAIR      65  37  35 E6        30.15F
RED WING       FAIR      70  21  16 W5        30.13F
STANTON        FAIR      68  35  28 W5        30.14F
DODGE CENTER   FAIR      64  36  34 N7        30.16F
WINONA         FAIR      70  30  23 E3        30.12F
AUSTIN         FAIR      64  37  36 CALM      30.15F
PRESTON        FAIR      65  31  28 NE5       30.15F
$$
ABBREVIATIONS USED IN REMARKS
   TC - TEMPERATURES IN CELSIUS
  WCI - WIND CHILL INDEX
   HX - HEAT INDEX
  VSB - VISIBILITY
$$




USA.gov is the U.S. government's official web portal to all federal, state and local government web resources and services.